Wind_Speed
24 23 22 20 20 20 22 21 16 17 22 33 29 34 24 36 39 41 42 33 32 32 36 36 35 33 33 33 34 35 31 34 26 23 22 23 21 19 14 11 13 15 13 12 20
23 22 22 20 20 21 21 18 16 18 19 26 36 32 31 29 36 46 35 33 35 34 37 36 36 35 35 34 35 36 39 34 29 22 22 22 19 13 13 13 14 15 14 17 21
23 21 20 18 17 18 20 19 14 16 16 16 28 31 34 37 36 37 33 33 33 37 32 35 35 36 37 36 37 40 41 31 28 23 25 23 22 16 10 10 11 11 12 15 18
23 19 18 17 17 18 17 15 15 16 17 13 18 17 27 22 21 34 36 37 33 35 33 38 40 39 37 38 37 37 37 35 26 22 23 25 24 18 13 5 9 11 9 10 15
23 20 18 18 17 16 17 15 15 16 17 13 14 28 31 25 31 17 36 39 36 40 40 40 43 39 39 38 38 37 37 36 27 28 21 23 24 17 14 11 12 16 16 12 15
23 21 18 17 16 16 15 16 14 16 17 15 14 16 37 33 32 20 32 44 36 39 40 38 38 37 35 36 37 35 35 34 29 23 27 23 25 23 20 15 13 15 16 15 15
24 21 18 16 16 15 14 14 14 15 16 14 11 18 25 30 34 30 27 38 41 39 39 37 33 39 29 35 35 28 34 30 35 23 16 26 30 27 21 18 16 17 17 17 18
24 21 19 16 16 15 14 13 14 14 13 11 10 17 26 15 29 39 28 32 40 40 35 31 34 33 28 28 28 35 24 32 28 35 22 25 33 30 25 20 18 17 19 19 19
24 20 18 16 15 14 12 12 10 11 11 11 12 13 16 16 24 40 32 29 32 39 38 34 35 34 34 25 26 32 26 33 32 31 32 23 28 32 29 24 20 18 19 21 22
25 17 17 14 14 13 12 11 10 9 9 11 12 7 9 12 21 28 39 31 27 30 40 40 37 38 40 33 37 34 31 33 34 33 36 27 28 31 30 27 23 20 20 20 21
21 15 14 13 13 14 10 10 9 7 7 9 8 4 6 7 13 31 42 38 29 29 45 45 45 52 52 42 28 33 38 32 34 35 33 35 29 29 31 29 27 24 23 22 20
21 16 14 13 13 15 14 13 11 9 5 6 8 11 10 10 16 36 34 34 37 35 42 44 54 49 43 40 26 29 34 35 26 31 33 35 32 30 29 30 26 24 25 24 23
22 18 14 14 14 15 15 13 13 12 5 7 8 9 9 13 17 38 27 28 41 35 42 52 44 45 43 43 34 29 27 35 30 28 23 28 32 33 33 31 30 28 25 25 25
21 19 16 16 14 16 16 13 13 11 4 9 17 10 10 13 17 21 29 27 44 35 36 36 12 41 41 41 39 31 26 25 20 26 18 23 9 40 41 42 38 34 32 29 29
19 18 18 18 18 18 17 13 11 4 4 9 19 9 10 13 13 19 29 28 42 30 38 32 37 26 44 43 40 25 21 21 23 18 19 24 13 25 41 45 43 41 37 33 32
18 17 17 17 20 19 18 10 10 4 3 10 19 18 10 16 18 19 36 32 20 43 36 26 14 29 34 38 37 17 19 19 19 18 9 22 27 25 32 43 44 42 39 34 32
16 16 17 18 17 15 15 11 3 7 13 17 22 20 13 3 16 19 27 33 22 23 31 26 24 32 20 34 28 25 29 5 2 4 5 18 21 26 13 31 30 35 34 36 34
14 17 19 19 16 14 13 8 11 15 16 20 18 16 17 7 6 24 20 26 34 25 28 23 15 34 30 37 45 47 39 15 8 5 3 6 14 27 33 13 25 30 29 31 33
13 15 16 17 17 13 13 15 8 14 18 19 11 13 17 22 5 10 20 18 30 33 19 20 8 35 27 38 40 43 41 34 7 5 5 12 13 13 34 36 25 29 33 29 31
12 13 16 18 19 13 11 13 12 13 17 15 11 11 14 20 10 6 11 15 15 29 28 20 14 30 26 30 31 41 42 18 18 6 5 3 9 21 27 27 33 25 24 32 30
12 13 14 16 17 11 20 13 14 13 18 14 16 14 16 21 14 9 6 3 19 36 30 19 24 20 27 31 36 28 38 29 24 14 5 2 7 19 27 28 30 30 32 24 23
14 12 13 14 13 17 19 17 15 16 18 17 12 13 15 21 14 14 9 10 7 21 29 27 24 24 39 27 33 39 36 42 20 14 16 2 9 2 19 23 23 20 22 25 26
18 13 14 12 10 15 13 16 16 20 22 23 16 20 20 15 7 14 14 9 4 13 21 24 14 20 19 29 24 32 37 39 43 26 32 15 7 17 10 11 23 28 25 26 28
22 16 14 19 12 11 12 16 19 14 21 24 17 26 24 13 6 9 9 11 7 9 18 34 23 24 18 37 48 41 43 44 46 34 26 32 28 22 15 11 16 16 20 27 28
28 24 21 18 16 16 14 14 17 21 20 25 16 23 21 16 17 5 7 8 4 3 15 20 21 24 24 25 34 53 50 42 45 45 36 40 28 29 32 27 19 20 19 20 24
32 25 19 17 17 14 16 18 20 21 23 25 22 24 18 15 13 17 15 7 3 7 18 11 10 21 19 15 19 39 46 52 44 44 46 47 45 44 34 31 37 31 24 20 21
31 25 18 16 16 18 19 20 20 20 17 23 26 24 19 21 18 15 13 10 9 6 6 12 9 13 9 19 16 20 43 41 49 54 48 50 51 44 41 40 39 38 38 38 35
Wind_Direction
319 311 303 298 289 279 277 268 250 263 238 233 219 212 218 226 221 217 215 210 208 207 204 200 196 198 201 203 203 206 206 213 209 200 188 183 187 192 203 208 211 202 181 187 190
322 317 311 300 296 286 278 273 246 260 258 243 226 206 217 236 224 220 207 205 205 205 205 201 194 195 199 202 204 205 209 212 208 199 190 189 194 198 193 202 199 203 191 187 191
326 322 319 309 299 296 288 276 255 251 261 244 240 230 199 213 222 223 208 205 205 206 205 201 197 199 201 202 204 207 211 208 205 200 200 202 200 205 209 203 204 207 197 190 181
326 322 314 312 305 299 297 282 252 253 264 254 244 249 199 178 213 231 207 202 202 204 202 201 198 198 200 204 206 211 210 208 207 197 199 201 208 203 207 180 183 182 188 193 182
326 323 318 311 306 301 300 295 263 252 257 256 240 243 236 204 174 201 207 204 204 199 201 204 202 195 200 204 207 209 210 211 211 210 197 197 208 207 203 186 182 183 182 175 178
326 324 320 317 303 305 301 297 290 262 258 261 240 256 250 217 175 189 197 208 205 204 201 203 206 197 201 207 208 208 212 212 203 202 211 206 203 208 205 195 194 192 193 181 175
330 325 322 318 312 302 300 291 289 267 264 261 251 253 271 217 183 184 193 201 204 199 202 201 204 201 203 206 209 208 213 210 208 201 210 206 205 204 202 206 207 201 194 188 178
324 327 322 322 318 314 302 293 278 269 265 267 255 253 278 269 204 182 184 196 197 199 193 196 201 204 203 205 210 209 206 210 207 209 213 200 204 203 203 211 209 203 197 190 187
329 324 323 326 322 320 310 297 284 275 266 261 259 262 283 261 244 185 186 192 190 197 190 187 202 202 202 198 199 205 206 205 205 204 210 206 204 203 204 204 205 203 200 196 189
333 326 331 332 328 324 322 315 296 280 268 255 263 277 258 269 221 205 193 187 189 191 188 187 196 200 199 196 194 191 198 207 207 201 206 209 207 206 208 209 203 200 201 202 197
348 341 343 338 334 332 332 327 318 299 297 275 276 275 276 274 214 216 192 190 188 192 190 189 191 201 202 199 206 208 204 207 207 210 207 211 212 209 210 212 210 205 205 205 202
7 2 357 346 346 342 345 347 349 343 343 334 310 300 274 257 216 216 185 186 191 188 191 188 204 201 201 199 193 208 211 208 204 206 208 212 213 215 216 217 221 224 217 210 206
10 8 8 358 354 348 350 351 347 344 354 39 355 326 277 257 245 206 185 188 189 191 196 196 207 203 201 198 197 207 210 208 210 205 206 211 218 215 220 219 218 220 220 219 215
11 12 16 6 359 354 349 349 339 334 97 21 3 334 292 241 241 219 208 188 193 197 197 202 193 207 201 201 199 208 208 215 202 205 190 199 226 220 221 225 226 226 230 228 220
12 11 16 13 5 360 356 348 345 19 53 8 353 349 276 239 230 198 212 189 192 190 190 199 203 195 205 200 197 204 207 204 216 206 211 209 225 227 223 225 227 229 232 229 225
13 13 11 5 1 359 1 353 12 29 309 1 345 348 339 251 215 187 207 192 177 200 202 198 186 207 209 201 198 192 181 187 205 206 229 220 207 238 225 228 229 229 229 227 226
18 13 11 5 7 11 6 7 25 55 340 344 346 355 17 340 227 195 205 193 183 172 178 180 183 199 198 198 195 189 183 133 179 206 215 214 212 228 228 235 232 234 233 229 225
12 15 13 2 7 19 10 12 52 357 345 349 349 22 20 63 186 212 192 205 196 180 171 159 175 188 191 199 193 193 185 170 178 185 166 157 213 229 226 193 216 223 224 229 229
8 11 3 4 5 7 359 42 22 357 343 345 15 352 10 27 60 181 220 234 195 193 177 177 142 181 193 197 200 193 201 209 134 112 151 211 215 243 223 228 227 216 215 215 219
8 8 2 12 16 26 31 50 23 7 4 10 347 336 342 354 34 161 210 227 214 181 188 195 182 190 188 197 201 208 199 193 216 149 200 259 205 216 225 226 219 218 218 221 221
5 7 7 10 20 28 46 36 23 358 358 2 358 347 359 360 33 53 45 116 201 197 204 205 195 185 189 198 196 196 204 207 215 222 167 148 239 230 233 234 238 232 228 223 222
4 356 0 4 4 35 32 16 14 18 13 11 13 8 354 1 7 25 33 6 170 172 178 184 199 183 197 201 207 209 211 209 212 214 222 47 228 73 225 221 224 225 223 227 234
21 4 356 10 24 31 34 27 10 17 13 9 3 2 353 359 1 358 7 35 164 171 166 164 172 174 196 212 205 208 215 220 219 227 228 212 213 225 237 213 223 224 223 227 231
25 19 10 14 37 34 32 25 22 17 6 3 356 353 351 1 3 306 335 13 59 195 171 177 173 185 198 213 205 206 213 217 220 221 224 228 230 220 222 202 196 221 235 238 241
27 31 33 31 44 38 36 27 23 16 15 1 359 358 357 341 342 349 337 350 62 161 179 184 201 198 209 218 215 218 216 219 221 227 226 236 238 234 227 228 230 248 250 249 248
28 28 30 35 31 29 31 25 20 15 3 7 357 357 358 347 331 311 313 335 333 89 191 194 197 207 205 215 211 216 223 225 230 232 237 238 242 242 237 233 234 239 230 239 258
25 27 26 24 24 21 19 14 14 12 13 5 1 359 2 344 324 304 288 262 258 244 172 179 185 188 194 207 209 221 220 223 232 237 237 237 242 245 246 245 247 250 251 254 255
Height
3006 3002 3000 2997 2995 2993 2992 2991 2992 2993 2995 2997 3000 3007 3013 3014 3018 3022 3029 3046 3049 3054 3058 3063 3067 3074 3079 3085 3088 3092 3098 3098 3104 3109 3112 3115 3118 3120 3123 3126 3128 3131 3133 3136 3138
3004 3000 2996 2993 2991 2990 2988 2987 2987 2988 2990 2993 2994 2999 3005 3008 3011 3014 3032 3036 3040 3047 3052 3058 3063 3069 3074 3080 3084 3087 3090 3095 3103 3108 3111 3114 3117 3119 3121 3123 3126 3130 3132 3134 3137
3001 2997 2994 2990 2988 2987 2985 2983 2983 2984 2986 2988 2988 2989 2994 2999 3004 3010 3024 3030 3035 3042 3048 3055 3060 3064 3069 3075 3079 3082 3087 3095 3101 3105 3109 3112 3115 3117 3119 3121 3126 3129 3132 3134 3136
2998 2995 2991 2988 2986 2983 2981 2980 2980 2981 2981 2984 2985 2984 2987 2991 3002 3006 3015 3022 3027 3035 3042 3047 3051 3057 3063 3070 3075 3081 3086 3093 3097 3102 3105 3109 3113 3115 3118 3122 3124 3128 3131 3133 3136
2995 2992 2988 2985 2983 2981 2979 2977 2977 2978 2978 2980 2982 2980 2977 2984 2990 3000 3007 3015 3021 3027 3034 3040 3045 3051 3059 3066 3072 3077 3083 3089 3095 3098 3103 3105 3110 3114 3117 3120 3122 3125 3129 3132 3135
2992 2989 2986 2983 2980 2978 2976 2974 2974 2974 2975 2976 2977 2977 2973 2978 2988 2996 3001 3009 3017 3024 3030 3036 3042 3051 3057 3063 3069 3075 3079 3085 3092 3095 3099 3103 3107 3111 3114 3118 3121 3124 3127 3130 3133
2990 2986 2983 2980 2978 2975 2974 2973 2971 2972 2972 2974 2975 2973 2971 2981 2981 2989 2997 3004 3011 3016 3025 3034 3043 3048 3052 3059 3066 3071 3076 3081 3087 3092 3095 3100 3103 3107 3112 3116 3119 3122 3126 3129 3132
2987 2983 2980 2977 2975 2973 2972 2969 2968 2969 2970 2971 2972 2971 2965 2974 2977 2985 2993 3000 3006 3014 3022 3033 3039 3046 3051 3055 3061 3067 3072 3076 3081 3087 3092 3095 3098 3104 3109 3114 3117 3120 3124 3127 3131
2984 2980 2977 2975 2972 2970 2969 2967 2966 2966 2967 2968 2969 2970 2970 2969 2975 2982 2989 2998 3004 3011 3019 3027 3034 3040 3047 3050 3056 3060 3063 3069 3078 3082 3088 3092 3097 3101 3106 3110 3114 3118 3122 3125 3128
2981 2977 2975 2973 2970 2968 2967 2965 2964 2965 2965 2966 2966 2971 2969 2966 2971 2973 2985 2992 3001 3006 3014 3020 3027 3033 3038 3042 3040 3047 3058 3065 3071 3078 3083 3089 3094 3098 3103 3108 3112 3115 3119 3123 3127
2979 2976 2974 2972 2969 2967 2967 2966 2967 2967 2964 2965 2965 2966 2965 2966 2967 2972 2981 2990 2997 3002 3005 3012 3018 3016 3024 3035 3043 3052 3057 3062 3069 3075 3081 3085 3091 3096 3100 3105 3107 3111 3116 3120 3125
2980 2977 2975 2972 2970 2968 2967 2965 2964 2966 2964 2963 2963 2963 2964 2963 2963 2968 2978 2984 2990 2996 3000 3010 3005 3019 3029 3036 3044 3050 3055 3061 3066 3071 3078 3082 3087 3092 3096 3101 3105 3109 3112 3117 3121
2984 2980 2977 2974 2972 2970 2967 2966 2964 2963 2963 2964 2963 2962 2962 2963 2961 2965 2972 2976 2986 2992 2996 2999 3006 3017 3025 3033 3042 3046 3052 3057 3064 3069 3075 3080 3084 3087 3091 3096 3099 3103 3109 3112 3117
2987 2983 2979 2976 2976 2971 2968 2966 2964 2961 2962 2966 2962 2960 2959 2960 2960 2961 2967 2976 2983 2988 2997 3004 3009 3014 3022 3031 3040 3045 3051 3058 3063 3067 3071 3076 3077 3078 3083 3088 3092 3098 3102 3108 3112
2989 2986 2982 2978 2976 2973 2970 2966 2964 2962 2967 2967 2963 2960 2956 2958 2958 2960 2967 2972 2978 2983 2993 2998 3004 3010 3018 3026 3038 3046 3051 3058 3062 3066 3068 3070 3075 3069 3075 3079 3085 3092 3096 3102 3107
2991 2988 2985 2982 2978 2975 2970 2967 2966 2966 2968 2966 2964 2959 2956 2953 2956 2959 2966 2970 2975 2985 2992 2998 3005 3013 3016 3029 3038 3045 3052 3058 3062 3064 3063 3062 3067 3060 3064 3070 3078 3085 3092 3097 3101
2993 2990 2986 2983 2980 2976 2973 2970 2969 2970 2973 2969 2962 2958 2955 2953 2954 2958 2963 2966 2971 2976 2984 2994 3002 3008 3017 3028 3037 3043 3048 3056 3065 3063 3055 3054 3062 3055 3061 3066 3073 3080 3085 3091 3096
2995 2992 2989 2985 2981 2977 2975 2973 2971 2975 2972 2968 2963 2959 2956 2955 2956 2957 2961 2963 2971 2972 2981 2986 3000 3001 3009 3016 3018 3026 3036 3035 3051 3052 3050 3053 3051 3047 3060 3062 3066 3072 3078 3084 3089
2996 2993 2990 2987 2985 2980 2978 2974 2979 2977 2974 2968 2964 2960 2958 2957 2957 2957 2960 2963 2967 2972 2980 2985 2992 3000 3006 3012 3021 3027 3031 3034 3037 3043 3045 3043 3045 3048 3050 3054 3061 3065 3069 3076 3081
2998 2995 2992 2989 2987 2984 2981 2979 2981 2979 2975 2971 2968 2964 2961 2958 2956 2957 2962 2964 2961 2970 2978 2983 2994 2998 3004 3011 3018 3020 3027 3033 3035 3043 3043 3038 3039 3040 3045 3050 3057 3061 3066 3071 3075
2998 2996 2993 2991 2989 2988 2983 2984 2982 2980 2977 2974 2972 2968 2966 2962 2960 2958 2961 2960 2961 2967 2975 2982 2988 2997 3001 3003 3007 3015 3019 3025 3029 3031 3033 3037 3031 3037 3042 3047 3051 3057 3062 3067 3071
2998 2996 2994 2992 2990 2987 2987 2986 2985 2982 2979 2975 2974 2971 2968 2962 2957 2961 2962 2963 2960 2963 2972 2979 2985 2991 2995 3001 3008 3011 3014 3019 3022 3026 3028 3030 3030 3032 3036 3040 3047 3052 3057 3061 3064
2999 2996 2994 2992 2992 2991 2991 2990 2986 2982 2979 2974 2972 2971 2968 2966 2964 2957 2957 2962 2960 2961 2966 2974 2981 2989 2998 3001 3003 3006 3011 3015 3020 3022 3022 3029 3029 3034 3037 3039 3043 3047 3051 3055 3058
3000 2998 2994 2993 2992 2992 2991 2991 2989 2987 2982 2978 2974 2969 2963 2965 2966 2965 2965 2961 2960 2961 2965 2970 2975 2979 2983 2982 2991 2995 3000 3007 3012 3014 3017 3017 3026 3032 3036 3037 3039 3043 3047 3050 3052
3004 3001 2998 2997 2994 2994 2993 2992 2990 2987 2986 2981 2977 2974 2971 2966 2960 2961 2961 2961 2963 2963 2966 2969 2973 2978 2982 2983 2988 2991 2997 3002 3005 3009 3011 3016 3019 3026 3032 3037 3039 3040 3042 3044 3047
3006 3005 3002 3000 2999 2997 2995 2993 2990 2988 2985 2983 2979 2976 2971 2969 2967 2962 2962 2961 2962 2965 2966 2969 2972 2975 2980 2981 2985 2987 2991 2997 3000 3002 3006 3009 3010 3020 3027 3029 3033 3036 3037 3039 3041
3011 3007 3005 3002 3000 2999 2996 2994 2991 2989 2987 2983 2979 2974 2971 2968 2965 2963 2962 2963 2964 2965 2966 2969 2971 2974 2976 2979 2981 2985 2984 2988 2991 2996 3000 2999 3004 3014 3017 3021 3026 3030 3031 3033 3035